Location: Murdochville
(48.9591°N, 65.4950°W)
Time: 23:01:03
(UTC-04:00)

Envisat - Pass Details

Date: 21 April 2026
Orbit: 761 x 762 km, 98.4° (Epoch: 15 May)

Event Time Altitude Azimuth Distance (km) Brightness Sun altitude
Rises 03:29:23 0° 11° (NNE) 3,236 7.1 -16.3°
Reaches altitude 10° 03:31:42 10° 9° (N) 2,305 6.2 -16.1°
Maximum altitude 03:36:43 65° 289° (WNW) 838 3.0 -15.4°
Enters shadow 03:39:58 22° 213° (SSW) 1,622 4.1 -15.0°
